Flag for Ukraine Weather past 2 weeks in Kyiv, Ukraine

Now
70 °F

Clear.


Feels Like: 70 °F
Forecast: 72 / 95 °F
Wind: No wind

Location: Kyiv

Current Time: Sep 1, 2015 at 11:29:18 PM

Latest Report: Sep 1, 2015 at 11:00 PM


Visibility: 10 mi

Pressure: 29.77 "Hg

Humidity: 73%

Dew point: 61 °F

Location of KyivLocation

Historic Weather in Kyiv — Graph

°F

Kyiv temperature yesterday

Maximum temperature yesterday: 88 °F (at 3:30 PM)
Minimum temperature yesterday: 52 °F (at 5:00 AM)
Average temperature yesterday: 71 °F

Past Weeks' High & Low Weather Summary

 TemperatureHumidityPressure
High95 °F (Sep 1, 4:00 PM)100% (Aug 22, 3:30 AM)30.33 "Hg (Aug 22, 3:30 AM)
Low48 °F (Aug 22, 4:30 AM)26% (Sep 1, 6:00 PM)29.80 "Hg (Sep 1, 6:00 PM)
Average68 °F54%30.13 "Hg
* Reported Aug 17 10:00 PM — Sep 1 10:30 PM, Kyiv, Weather by CustomWeather, © 2015

Note: Actual official high and low records may vary slightly from our data, if they occured in-between our weather recording intervals... More about our weather records

Advertising

Kyiv weather history for previous 24 hours

 ConditionsComfort  
Time TempWeatherWind HumidityBarometerVisibility
10:30 PM
Tue, Sep 1
72 °FClear.No wind69%29.80 "HgN/A
10:00 PM73 °FClear.No wind65%29.80 "Hg5 mi
9:30 PM79 °FClear.1 mph51%29.80 "Hg10 mi
9:00 PM77 °FClear.3 mph54%29.80 "Hg10 mi
8:30 PM77 °FClear.No wind54%29.80 "Hg6 mi
8:00 PM82 °FSunny.1 mph45%29.80 "Hg10 mi
7:30 PM88 °FSunny.3 mph33%29.80 "Hg10 mi
7:00 PM91 °FSunny.3 mph30%29.80 "Hg10 mi
6:30 PM93 °FSunny.8 mph28%29.80 "Hg10 mi
6:00 PM95 °FPassing clouds.8 mph26%29.80 "HgN/A
5:30 PM95 °FPassing clouds.6 mph28%29.83 "HgN/A
5:00 PM93 °FPassing clouds.3 mph34%29.83 "HgN/A
4:30 PM95 °FPassing clouds.6 mph32%29.83 "HgN/A
4:00 PM95 °FPassing clouds.6 mph32%29.83 "HgN/A
3:30 PM93 °FSunny.6 mph32%29.86 "Hg10 mi
3:00 PM93 °FPassing clouds.6 mph34%29.86 "HgN/A
2:30 PM91 °FSunny.3 mph34%29.89 "Hg10 mi
2:00 PM91 °FSunny.6 mph34%29.89 "Hg10 mi
1:30 PM90 °FSunny.3 mph36%29.89 "Hg10 mi
1:00 PM88 °FSunny.3 mph38%29.92 "Hg10 mi
12:30 PM88 °FPassing clouds.3 mph38%29.92 "HgN/A
12:00 PM84 °FSunny.3 mph40%29.92 "Hg10 mi
11:30 AM84 °FPassing clouds.3 mph40%29.92 "HgN/A
11:00 AM82 °FPassing clouds.3 mph42%29.95 "HgN/A
10:30 AM81 °FSunny.3 mph42%29.95 "Hg10 mi
10:00 AM79 °FPassing clouds.6 mph45%29.95 "HgN/A
9:30 AM77 °FPassing clouds.3 mph47%29.95 "HgN/A
9:00 AM75 °FPassing clouds.6 mph50%29.95 "HgN/A
8:30 AM72 °FPassing clouds.3 mph57%29.95 "HgN/A
8:00 AM70 °FSunny.3 mph60%29.95 "Hg10 mi
7:30 AM68 °FSunny.1 mph69%29.95 "Hg10 mi
6:30 AM63 °FClear.3 mph68%29.95 "Hg10 mi
6:00 AM63 °FClear.3 mph73%29.95 "Hg10 mi
5:30 AM61 °FClear.3 mph77%29.95 "Hg10 mi
5:00 AM63 °FClear.6 mph73%29.98 "Hg10 mi
4:30 AM66 °FClear.1 mph60%29.98 "Hg10 mi
3:30 AM66 °FClear.3 mph60%29.98 "Hg10 mi
3:00 AM66 °FPassing clouds.3 mph60%29.98 "HgN/A
2:30 AM68 °FClear.3 mph56%29.98 "Hg10 mi
2:00 AM70 °FClear.3 mph57%29.98 "Hg10 mi
1:30 AM68 °FClear.6 mph56%30.01 "Hg10 mi
12:00 AM73 °FClear.8 mph47%30.01 "Hg10 mi
11:30 PM
Mon, Aug 31
72 °FClear.6 mph50%30.01 "Hg10 mi
11:00 PM72 °FClear.8 mph53%30.01 "Hg10 mi
Weather by CustomWeather, © 2015

See weather overviewHow to use our weather pages